{"data":{"norad_id":51739,"intl_designator":"2022-016AB","name":"STARLINK-3516","alt_names":[],"object_type":"PAYLOAD","status":"ACTIVE","operator":null,"country":"US","launch_date":"2022-02-21","launch_site_code":"AFETR","launch_vehicle":null,"mission":null,"orbit_class":"UNKNOWN","rcs_meters":null,"size_class":null,"mass_kg":null,"dimensions":null,"purposes":["comms"],"wikipedia_slug":null,"has_3d_model":false,"image_url":null,"decayed_at":null,"tle_current":{"epoch":"2026-09-20T04:05:15.552096Z","epoch_age_seconds":80722,"freshness":"FRESH","line1":"1 51739U 22016AB  26263.17031889  .00001539  00000+0  54988-4 0  9997","line2":"2 51739  53.1596 151.1048 0001179  80.1484 279.9652 15.35412457253129","mean_motion":15.35412457,"eccentricity":0.0001179,"inclination_deg":53.1596,"raan_deg":151.1048,"arg_perigee_deg":80.1484,"mean_anomaly_deg":279.9652,"bstar":5.4988e-5,"rev_number":25312,"period_min":93.785874501343,"perigee_km":458.88947787302,"apogee_km":460.50183881385,"semimajor_km":6837.8326583434,"source":"CELESTRAK","updated_at":"2026-09-20T09:00:39.930978Z"}}}